CW3783 Weather Reports


Display with metric or nautical units.
time (UTC)temp
F
wind
direction
speed
MPH
gust
MPH
rain 1hr
in
rain 24hr
in
rain mn
in
humidity
%
barometer
mb
20260508193803 71 282 3.0 13.0 0.00 0.00 0.00 31 1010.1
20260508193303 71 291 6.0 13.0 0.00 0.00 0.00 33 1010.3
20260508192803 71 278 7.0 14.0 0.00 0.00 0.00 30 1010.3
20260508192306 71 279 5.0 12.0 0.00 0.00 0.00 30 1010.5
20260508191804 71 295 3.0 16.0 0.00 0.00 0.00 31 1010.6
20260508191303 71 250 9.0 20.0 0.00 0.00 0.00 32 1010.7
20260508190804 72 305 7.0 14.0 0.00 0.00 0.00 30 1010.7
20260508190304 72 280 8.0 13.0 0.00 0.00 0.00 30 1010.7
20260508185804 71 272 7.0 15.0 0.00 0.00 0.00 33 1010.7
20260508185306 71 254 6.0 15.0 0.00 0.00 0.00 31 1010.7
20260508184803 71 297 6.0 9.0 0.00 0.00 0.00 34 1010.8
20260508183803 70 232 3.0 9.0 0.00 0.00 0.00 33 1010.9
20260508183304 70 233 4.0 13.0 0.00 0.00 0.00 32 1011.0
20260508181803 71 239 7.0 17.0 0.00 0.00 0.00 31 1011.1
20260508181304 71 269 3.0 15.0 0.00 0.00 0.00 31 1011.0
20260508180804 72 256 6.0 14.0 0.00 0.00 0.00 31 1011.1
20260508180304 71 262 5.0 13.0 0.00 0.00 0.00 32 1011.1
20260508175803 71 299 10.0 21.0 0.00 0.00 0.00 33 1011.2
20260508175306 71 310 10.0 21.0 0.00 0.00 0.00 33 1011.2
20260508174803 71 289 6.0 14.0 0.00 0.00 0.00 34 1011.3
20260508174303 71 271 8.0 20.0 0.00 0.00 0.00 32 1011.5
20260508173803 71 270 6.0 15.0 0.00 0.00 0.00 34 1011.6
20260508173303 71 266 6.0 18.0 0.00 0.00 0.00 34 1011.6
20260508172803 71 300 9.0 20.0 0.00 0.00 0.00 35 1011.7
20260508171804 70 304 10.0 18.0 0.00 0.00 0.00 33 1011.7
20260508170803 70 267 10.0 16.0 0.00 0.00 0.00 34 1011.9
20260508170303 70 282 6.0 13.0 0.00 0.00 0.00 36 1011.8
20260508165803 70 261 4.0 16.0 0.00 0.00 0.00 35 1011.8
20260508165306 69 240 6.0 14.0 0.00 0.00 0.00 34 1012.0
20260508164803 69 282 5.0 16.0 0.00 0.00 0.00 34 1012.0
20260508163804 69 222 6.0 13.0 0.00 0.00 0.00 35 1011.9
20260508163303 68 284 5.0 13.0 0.00 0.00 0.00 36 1012.1
20260508162803 68 296 9.0 20.0 0.00 0.00 0.00 37 1012.1
20260508161803 68 224 6.0 12.0 0.00 0.00 0.00 36 1012.2
20260508160803 68 265 2.0 6.0 0.00 0.00 0.00 37 1012.4
20260508155803 68 282 7.0 14.0 0.00 0.00 0.00 39 1012.6
20260508155306 67 293 5.0 17.0 0.00 0.00 0.00 41 1012.6
20260508154804 67 284 6.0 13.0 0.00 0.00 0.00 40 1012.7
20260508153804 67 265 8.0 14.0 0.00 0.00 0.00 39 1013.0
20260508153304 66 288 11.0 17.0 0.00 0.00 0.00 40 1013.0
20260508152803 66 261 7.0 13.0 0.00 0.00 0.00 37 1013.0
20260508152306 66 287 5.0 15.0 0.00 0.00 0.00 39 1013.1
20260508151803 65 277 7.0 15.0 0.00 0.00 0.00 39 1013.2
20260508150803 65 223 6.0 17.0 0.00 0.00 0.00 37 1013.3
20260508150303 65 216 9.0 16.0 0.00 0.00 0.00 39 1013.3
20260508145804 65 338 7.0 15.0 0.00 0.00 0.00 39 1013.3
20260508144803 65 191 8.0 13.0 0.00 0.00 0.00 42 1013.3
20260508144303 64 277 5.0 12.0 0.00 0.00 0.00 38 1013.4
20260508143803 64 293 6.0 14.0 0.00 0.00 0.00 38 1013.4
20260508142803 64 241 3.0 9.0 0.00 0.00 0.00 41 1013.4
20260508142306 64 218 5.0 12.0 0.00 0.00 0.00 41 1013.4
20260508140804 63 245 4.0 12.0 0.00 0.00 0.00 40 1013.6
20260508140303 63 273 3.0 9.0 0.00 0.00 0.00 39 1013.6
20260508135306 62 258 4.0 12.0 0.00 0.00 0.00 38 1013.5
20260508134303 62 239 5.0 13.0 0.00 0.00 0.00 38 1013.6
20260508133804 62 269 3.0 13.0 0.00 0.00 0.00 39 1013.7
20260508133304 62 252 4.0 12.0 0.00 0.00 0.00 39 1013.8
20260508132803 61 256 6.0 10.0 0.00 0.00 0.00 39 1013.8
20260508132306 61 230 2.0 7.0 0.00 0.00 0.00 40 1013.9
20260508131803 61 220 2.0 7.0 0.00 0.00 0.00 39 1013.9
20260508131304 61 276 2.0 5.0 0.00 0.00 0.00 39 1013.9
20260508130303 61 194 3.0 3.0 0.00 0.00 0.00 41 1013.8
20260508125803 60 287 2.0 6.0 0.00 0.00 0.00 44 1013.9
20260508125306 60 214 2.0 3.0 0.00 0.00 0.00 46 1013.9
20260508124304 60 265 3.0 8.0 0.00 0.00 0.00 48 1013.9
20260508123804 59 311 3.0 6.0 0.00 0.00 0.00 48 1013.8
20260508123303 59 299 2.0 5.0 0.00 0.00 0.00 47 1013.8
20260508122804 58 258 2.0 6.0 0.00 0.00 0.00 51 1013.8
20260508122306 58 327 1.0 3.0 0.00 0.00 0.00 53 1013.8
20260508121803 57 317 2.0 7.0 0.00 0.00 0.00 54 1013.7
20260508121303 57 292 3.0 6.0 0.00 0.00 0.00 55 1013.8
20260508120803 56 274 2.0 6.0 0.00 0.00 0.00 55 1013.7
20260508120303 55 299 2.0 5.0 0.00 0.00 0.00 58 1013.7
20260508115803 55 295 1.0 7.0 0.00 0.00 0.00 59 1013.8
20260508114803 53 301 6.0 10.0 0.00 0.00 0.00 61 1013.7
20260508113803 52 302 4.0 8.0 0.00 0.00 0.00 62 1013.6
20260508113303 52 306 3.0 7.0 0.00 0.00 0.00 64 1013.5
20260508112803 51 323 1.0 7.0 0.00 0.00 0.00 65 1013.4
20260508111803 50 302 3.0 9.0 0.00 0.00 0.00 66 1013.3
20260508111303 49 326 3.0 6.0 0.00 0.00 0.00 67 1013.2
20260508110803 49 321 2.0 3.0 0.00 0.00 0.00 68 1013.1
20260508105804 48 309 4.0 8.0 0.00 0.00 0.00 68 1013.0
20260508105306 47 308 3.0 5.0 0.00 0.00 0.00 67 1013.0
20260508104803 47 302 3.0 6.0 0.00 0.00 0.00 67 1012.8
20260508103803 47 310 5.0 8.0 0.00 0.00 0.00 67 1012.9
20260508103303 47 321 3.0 8.0 0.00 0.00 0.00 67 1012.8
20260508102803 47 314 5.0 9.0 0.00 0.00 0.00 67 1012.9
20260508102306 47 310 6.0 9.0 0.00 0.00 0.00 67 1012.8
20260508101803 47 319 4.0 10.0 0.00 0.00 0.00 66 1012.8
20260508101303 47 317 4.0 8.0 0.00 0.00 0.00 66 1012.7
20260508100803 47 296 3.0 6.0 0.00 0.00 0.00 66 1012.7
20260508100303 47 324 3.0 7.0 0.00 0.00 0.00 66 1012.6
20260508095306 47 321 3.0 7.0 0.00 0.00 0.00 65 1012.5
20260508094803 47 329 5.0 9.0 0.00 0.00 0.00 65 1012.4
20260508094303 47 327 3.0 6.0 0.00 0.00 0.00 65 1012.3
20260508093303 48 334 3.0 6.0 0.00 0.00 0.00 64 1012.4
20260508092803 48 325 2.0 3.0 0.00 0.00 0.00 64 1012.4
20260508092312 48 310 2.0 3.0 0.00 0.00 0.00 64 1012.4
20260508091803 48 322 2.0 3.0 0.00 0.00 0.00 63 1012.4
20260508091303 48 326 2.0 3.0 0.00 0.00 0.00 63 1012.3
20260508090803 49 342 2.0 5.0 0.00 0.00 0.00 63 1012.2
20260508090304 49 349 3.0 6.0 0.00 0.00 0.00 63 1012.2
20260508085803 49 351 3.0 12.0 0.00 0.00 0.00 63 1012.1
20260508085306 49 323 4.0 9.0 0.00 0.00 0.00 63 1012.1
20260508084803 49 339 6.0 10.0 0.00 0.00 0.00 63 1012.0
20260508083803 49 343 5.0 9.0 0.00 0.00 0.00 63 1012.0
20260508083303 49 336 5.0 10.0 0.00 0.00 0.00 63 1011.9
20260508082803 49 338 5.0 9.0 0.00 0.00 0.00 63 1011.9
20260508082306 49 331 6.0 12.0 0.00 0.00 0.00 63 1011.9
20260508081303 50 351 5.0 9.0 0.00 0.00 0.00 63 1011.7
20260508080803 50 338 5.0 10.0 0.00 0.00 0.00 64 1011.7
20260508080303 50 329 5.0 8.0 0.00 0.00 0.00 64 1011.6
20260508075308 50 333 8.0 9.0 0.00 0.00 0.00 65 1011.4
20260508074803 50 338 6.0 12.0 0.00 0.00 0.00 65 1011.4
20260508073803 50 325 6.0 10.0 0.00 0.00 0.00 67 1011.3
20260508073303 50 327 7.0 12.0 0.00 0.00 0.00 68 1011.3
20260508072804 50 318 5.0 10.0 0.00 0.00 0.00 69 1011.1
20260508071804 50 329 4.0 6.0 0.00 0.00 0.00 70 1010.9
20260508070804 50 326 5.0 9.0 0.00 0.00 0.00 72 1010.8
20260508065803 50 328 6.0 13.0 0.00 0.00 0.00 74 1010.7
20260508065306 49 326 5.0 10.0 0.00 0.00 0.00 76 1010.6
20260508064803 49 324 6.0 13.0 0.00 0.00 0.00 76 1010.5
20260508064303 49 302 3.0 7.0 0.00 0.00 0.00 78 1010.5
20260508063803 50 341 3.0 12.0 0.00 0.00 0.00 80 1010.4
20260508062803 50 315 3.0 8.0 0.00 0.00 0.00 81 1010.4
20260508062306 50 300 5.0 8.0 0.00 0.00 0.00 82 1010.3
20260508061804 50 302 4.0 7.0 0.00 0.00 0.00 82 1010.2
20260508061303 50 291 6.0 10.0 0.00 0.00 0.00 82 1010.2
20260508060803 50 305 4.0 10.0 0.00 0.00 0.00 82 1010.2
20260508060303 50 309 5.0 9.0 0.00 0.00 0.00 82 1010.2
20260508055803 50 306 5.0 10.0 0.00 0.00 0.00 82 1010.2
20260508055306 50 292 6.0 12.0 0.00 0.00 0.00 82 1010.2
20260508054803 50 305 6.0 12.0 0.00 0.00 0.00 82 1010.2
20260508054304 50 307 6.0 10.0 0.00 0.00 0.00 82 1010.1
20260508053303 51 273 7.0 8.0 0.00 0.00 0.00 82 1010.0
20260508052803 51 306 4.0 8.0 0.00 0.01 0.00 81 1010.0
20260508052306 51 284 3.0 9.0 0.00 0.01 0.00 81 1009.9
20260508051803 51 283 4.0 6.0 0.00 0.01 0.00 81 1010.0
20260508051303 51 243 2.0 5.0 0.00 0.01 0.00 81 1009.9
20260508050803 51 297 2.0 5.0 0.00 0.02 0.00 81 1009.8
20260508050303 51 275 2.0 7.0 0.00 0.06 0.00 81 1009.8
20260508045306 51 274 3.0 6.0 0.00 0.07 0.00 80 1009.6
20260508044803 52 300 4.0 10.0 0.00 0.12 0.00 80 1009.6
20260508044303 52 259 3.0 3.0 0.00 0.13 0.00 80 1009.6
20260508043803 52 284 2.0 7.0 0.00 0.13 0.00 80 1009.5
20260508043303 52 261 4.0 7.0 0.00 0.13 0.00 80 1009.5
20260508042306 52 277 3.0 8.0 0.00 0.13 0.00 79 1009.5
20260508041304 52 261 5.0 12.0 0.00 0.13 0.00 79 1009.4
20260508040803 52 224 5.0 10.0 0.00 0.13 0.00 78 1009.3
20260508040303 52 254 4.0 8.0 0.00 0.13 0.00 78 1009.3
20260508035803 52 246 3.0 7.0 0.00 0.13 0.13 78 1009.3
20260508035306 53 252 5.0 9.0 0.00 0.13 0.13 78 1009.2
20260508034304 53 261 5.0 12.0 0.00 0.13 0.13 78 1009.3
20260508033805 53 241 4.0 8.0 0.00 0.13 0.13 77 1009.2
20260508033303 53 254 4.0 8.0 0.00 0.13 0.13 77 1009.2
20260508032803 53 288 4.0 10.0 0.00 0.13 0.13 77 1009.2
20260508032306 53 264 4.0 10.0 0.00 0.13 0.13 76 1009.2
20260508031803 53 249 6.0 12.0 0.00 0.13 0.13 76 1009.2
20260508031304 53 260 4.0 9.0 0.00 0.13 0.13 76 1009.2
20260508030804 53 260 3.0 7.0 0.00 0.13 0.13 76 1009.2
20260508030304 53 229 4.0 7.0 0.00 0.13 0.13 75 1009.2
20260508025305 54 280 4.0 9.0 0.00 0.13 0.13 75 1009.2
20260508024804 54 236 4.0 9.0 0.00 0.13 0.13 74 1009.1
20260508024304 54 256 3.0 6.0 0.00 0.13 0.13 74 1009.1
20260508023303 54 249 3.0 3.0 0.00 0.13 0.13 73 1009.0
20260508022804 54 213 3.0 12.0 0.00 0.13 0.13 73 1009.1
20260508022306 55 240 4.0 10.0 0.00 0.13 0.13 72 1009.1
20260508021804 55 240 4.0 12.0 0.00 0.13 0.13 72 1009.1
20260508021303 55 235 5.0 12.0 0.00 0.13 0.13 71 1009.0
20260508020804 55 234 2.0 8.0 0.00 0.13 0.13 71 1008.9
20260508015803 55 231 3.0 8.0 0.00 0.13 0.13 70 1008.9
20260508015306 55 225 3.0 7.0 0.00 0.13 0.13 69 1009.0
20260508014803 55 247 3.0 6.0 0.00 0.13 0.13 69 1008.9
20260508013304 56 220 3.0 6.0 0.00 0.13 0.13 68 1008.8
20260508012803 56 193 5.0 8.0 0.00 0.13 0.13 68 1008.8
20260508012307 56 233 6.0 12.0 0.00 0.13 0.13 67 1008.7
20260508011804 56 230 3.0 8.0 0.00 0.13 0.13 66 1008.7
20260508011304 56 225 3.0 10.0 0.00 0.13 0.13 66 1008.5
20260508010803 56 222 5.0 10.0 0.00 0.13 0.13 65 1008.4
20260508010304 56 214 5.0 8.0 0.00 0.13 0.13 64 1008.3
20260508005803 57 208 4.0 8.0 0.00 0.13 0.13 64 1008.3
20260508005305 57 186 3.0 9.0 0.00 0.13 0.13 63 1008.2
20260508004803 57 207 3.0 7.0 0.00 0.13 0.13 63 1008.0
20260508003803 57 214 3.0 10.0 0.00 0.13 0.13 62 1008.0
20260508003303 57 214 5.0 12.0 0.00 0.13 0.13 62 1007.9
20260508002804 58 225 6.0 12.0 0.00 0.13 0.13 61 1007.9
20260508001803 58 207 5.0 10.0 0.00 0.13 0.13 60 1007.8
20260508001304 58 206 3.0 9.0 0.00 0.13 0.13 60 1007.7
20260508000803 58 195 5.0 9.0 0.00 0.13 0.13 60 1007.7
20260508000305 59 197 4.0 12.0 0.00 0.13 0.13 59 1007.6
20260507235803 59 197 3.0 12.0 0.00 0.13 0.13 58 1007.6
20260507235306 59 224 7.0 12.0 0.00 0.13 0.13 58 1007.4
20260507234803 59 210 9.0 15.0 0.00 0.13 0.13 57 1007.3
20260507234304 59 198 8.0 14.0 0.00 0.13 0.13 57 1007.3
20260507233803 60 198 3.0 9.0 0.00 0.13 0.13 57 1007.3
20260507233303 60 207 6.0 12.0 0.00 0.13 0.13 57 1007.3
20260507232803 60 200 6.0 12.0 0.00 0.13 0.13 57 1007.2
20260507232306 60 201 5.0 10.0 0.00 0.13 0.13 57 1007.1
20260507231804 60 188 6.0 12.0 0.00 0.13 0.13 56 1007.1
20260507231304 60 209 8.0 14.0 0.00 0.13 0.13 56 1007.0
20260507230803 61 172 7.0 12.0 0.00 0.13 0.13 55 1007.0
20260507230303 61 208 4.0 13.0 0.00 0.13 0.13 55 1006.8
20260507225804 61 191 7.0 13.0 0.00 0.13 0.13 55 1006.9
20260507225306 61 173 6.0 13.0 0.00 0.13 0.13 55 1006.8
20260507224803 62 156 7.0 14.0 0.00 0.13 0.13 54 1006.8
20260507224303 62 182 9.0 13.0 0.00 0.13 0.13 53 1006.8
20260507223804 62 167 6.0 10.0 0.00 0.13 0.13 52 1006.8
20260507223304 63 193 5.0 14.0 0.00 0.13 0.13 52 1006.7
20260507222803 63 193 7.0 12.0 0.00 0.13 0.13 51 1006.7
20260507222306 64 211 5.0 10.0 0.00 0.13 0.13 51 1006.7
20260507221804 64 157 5.0 12.0 0.00 0.13 0.13 50 1006.6
20260507221304 64 160 4.0 12.0 0.00 0.13 0.13 49 1006.5
20260507220803 64 182 7.0 12.0 0.00 0.13 0.13 49 1006.5
20260507220303 65 152 8.0 15.0 0.00 0.13 0.13 47 1006.5
20260507215803 65 146 8.0 12.0 0.00 0.13 0.13 48 1006.6
20260507215306 66 174 6.0 12.0 0.00 0.13 0.13 47 1006.6
20260507214803 66 160 6.0 13.0 0.00 0.13 0.13 46 1006.6
20260507213804 67 140 8.0 12.0 0.00 0.13 0.13 44 1006.6
20260507213304 68 166 8.0 13.0 0.00 0.13 0.13 41 1006.7
20260507212803 68 238 1.0 8.0 0.00 0.13 0.13 37 1006.6
20260507212306 68 8 4.0 9.0 0.00 0.13 0.13 36 1006.6
20260507211303 68 53 6.0 12.0 0.00 0.13 0.13 38 1006.6
20260507210803 68 330 2.0 9.0 0.00 0.13 0.13 35 1006.7
20260507210303 68 57 5.0 12.0 0.00 0.13 0.13 35 1006.7
20260507205803 69 23 7.0 10.0 0.00 0.13 0.13 35 1006.7
20260507204303 69 313 8.0 14.0 0.00 0.13 0.13 35 1006.8
20260507203303 69 13 7.0 13.0 0.00 0.13 0.13 36 1006.7
20260507202803 69 306 2.0 12.0 0.00 0.13 0.13 37 1006.6
20260507202306 68 307 7.0 12.0 0.00 0.13 0.13 37 1006.5
20260507201803 68 311 7.0 13.0 0.00 0.13 0.13 37 1006.6
20260507201303 68 333 6.0 10.0 0.00 0.13 0.13 37 1006.5
20260507200803 67 335 5.0 12.0 0.00 0.13 0.13 38 1006.6
20260507195803 67 95 3.0 7.0 0.00 0.13 0.13 42 1006.7
20260507195305 67 24 11.0 17.0 0.00 0.13 0.13 43 1006.7
20260507194803 67 132 3.0 8.0 0.00 0.13 0.13 43 1006.7
20260507194304 67 161 6.0 10.0 0.00 0.13 0.13 41 1006.8